www.pogodaiklimat.ru

Архив погоды в Лондоне (Великобритания)

Время
(UTC), дата
16 12.06
17 12.06
18 12.06
19 12.06
20 12.06
21 12.06
22 12.06
23 12.06
00 13.06
01 13.06
02 13.06
03 13.06
04 13.06
05 13.06
06 13.06
07 13.06
08 13.06
09 13.06
10 13.06
11 13.06
12 13.06
13 13.06
14 13.06
15 13.06
16 13.06
17 13.06
18 13.06
19 13.06
20 13.06
21 13.06
22 13.06
23 13.06
00 14.06
01 14.06
02 14.06
03 14.06
04 14.06
05 14.06
06 14.06
07 14.06
08 14.06
09 14.06
10 14.06
11 14.06
12 14.06
13 14.06
14 14.06
15 14.06
16 14.06
17 14.06
18 14.06
19 14.06
20 14.06
21 14.06
22 14.06
23 14.06
00 15.06
01 15.06
02 15.06
03 15.06
04 15.06
05 15.06
06 15.06
07 15.06
08 15.06
09 15.06
10 15.06
11 15.06
12 15.06
13 15.06
14 15.06
15 15.06
16 15.06
17 15.06
18 15.06
19 15.06
20 15.06
21 15.06
22 15.06
23 15.06
00 16.06
01 16.06
02 16.06
03 16.06
04 16.06
05 16.06
06 16.06
07 16.06
08 16.06
09 16.06
10 16.06
11 16.06
12 16.06
13 16.06
14 16.06
15 16.06
16 16.06
17 16.06
18 16.06
19 16.06
20 16.06
21 16.06
22 16.06
23 16.06
00 17.06
01 17.06
02 17.06
03 17.06
04 17.06
05 17.06
06 17.06
07 17.06
08 17.06
09 17.06
10 17.06
11 17.06
12 17.06
13 17.06
14 17.06
15 17.06
16 17.06
17 17.06
18 17.06
19 17.06
20 17.06
21 17.06
22 17.06
23 17.06
00 18.06
01 18.06
02 18.06
03 18.06
04 18.06
05 18.06
06 18.06
07 18.06
08 18.06
09 18.06
10 18.06
11 18.06
12 18.06
13 18.06
14 18.06
15 18.06
16 18.06
17 18.06
18 18.06
19 18.06
20 18.06
21 18.06
22 18.06
23 18.06
00 19.06
01 19.06
02 19.06
03 19.06
04 19.06
05 19.06
06 19.06
07 19.06
08 19.06
09 19.06
10 19.06
11 19.06
12 19.06
13 19.06
14 19.06
15 19.06
Ветер
(напр.,м/с)
Видим. Явления Облачность Т
(С)
Тd
(С)
f
(%)
Тe
(С)
Тes
(С)
Комфортность P
(гПа)
Po
(гПа)
Тmin
(С)
Tmax
(С)
R
(мм)
R24
(мм)
S
(см)
ЮЗ 3-5 {6} н/о н/о +16.1 +4.2 45 +16 +16 тепло 1019.7 1016.7
Ю 3-5 {6} н/о н/о +15.8 +4.6 47 +15 +15 тепло 1019.5 1016.4
ЮЗ 3-5 {6} 55 км 10/10 1500 м +15.8 +5.0 49 +16 +16 по сезону 1019.3 1016.3 +17.1
Ю 3-5 {5} н/о н/о +16.3 +5.5 49 +16 +16 по сезону 1019.1 1016.2
З 3-5 {5} н/о н/о +14.6 +3.1 46 +14 +14 прохладно 1019.2 1016.2
З 4-5 {5} 60 км ясно +13.2 +4.0 54 +12 +12 прохладно 1019.4 1016.3 +17.1
З 3-3 {5} н/о н/о +12.2 +5.1 62 +11 +11 прохладно 1019.2 1016.2
ЮЗ 2-2 {4} н/о н/о +10.8 +5.1 68 +10 +10 прохладно 1019.0 1016.0
Ю 2-3 {3} 50 км ясно +9.7 +5.7 76 +8 +8 прохладно 1018.8 1015.7
Ю 2-3 {6} н/о н/о +9.1 +5.8 80 +8 +8 прохладно 1018.5 1015.4
Ю 3-4 {4} н/о н/о +8.7 +5.7 81 +6 +6 прохладно 1018.1 1015.0
ЮЗ 2-3 {4} 40 км ясно +8.1 +5.7 85 +6 +6 холодно 1017.4 1014.3
ЮЗ 2-3 {3} н/о н/о +7.3 +5.5 88 +5 +5 холодно 1017.1 1014.1
Ю 1-2 {3} н/о н/о +8.7 +6.7 87 +8 +9 по сезону 1016.6 1013.6
Ю 3-4 {4} 35 км 1/1 +10.1 +6.9 81 +8 +10 прохладно 1016.3 1013.3 +7.2 +16.3
Ю 2-3 {4} н/о н/о +12.4 +9.6 83 +11 +12 по сезону 1015.8 1012.8
Ю 4-8 {8} н/о н/о +15.3 +10.2 72 +14 +17 тепло 1015.1 1012.1
Ю 6-8 {8} 45 км 10/10 1050 м +15.9 +7.9 59 +15 +15 по сезону 1014.7 1011.7 +16.3
ЮЗ 7-10 {10} н/о н/о +16.4 +6.5 52 +15 +15 по сезону 1014.1 1011.1
ЮЗ 8-11 {11} н/о н/о +17.1 +5.9 48 +16 +16 тепло 1013.7 1010.7
Ю 7-10 {11} 55 км 10/10 1200 м +16.7 +7.3 54 +16 +16 прохладно 1013.0 1010.0
Ю 7-10 {11} н/о 10/1 1380 м +16.7 +7.7 55 +15 +15 прохладно 1012.3 1009.3
Ю 7-10 {12} н/о 10/10 600 м +16.3 +7.7 57 +15 +15 прохладно 1011.7 1008.7
Ю 7-11 {12} 45 км 10/10 960 м +15.7 +7.9 60 +14 +14 прохладно 1011.1 1008.1
Ю 7-11 {11} н/о слаб. морось с дождем 10/3 1230 м +14.8 +8.8 67 +13 +13 холодно 1010.3 1007.3
Ю 7-11 {11} н/о слаб. дождь 10/1 1110 м +13.8 +8.9 72 +12 +12 холодно 1009.7 1006.7
Ю 5-8 {10} 40 км в посл. час дождь 10/10 960 м +13.5 +9.7 78 +12 +12 холодно 1008.8 1005.8 +17.5
Ю 5-9 {9} н/о слаб. морось 10/10 200 м +12.3 +10.8 91 +10 +10 очень холодно 1008.2 1005.2 0.4
Ю 7-10 {10} н/о слаб. дождь 10/8 870 м +12.4 +10.2 86 +10 +10 очень холодно 1007.5 1004.5 0.2
Ю 6-9 {13} 6000 м слаб. дождь 10/10 300 м +11.3 +10.0 92 +8 +8 холодно 1006.8 1003.8 +17.5 1
Ю 7-11 {11} н/о в посл. час дождь 10/10 200 м +11.4 +10.3 93 +8 +8 холодно 1005.8 1002.7 0.6
Ю 5-8 {10} н/о 10/10 +11.8 +10.8 94 +9 +9 прохладно 1005.0 1002.0
Ю 6-9 {9} 30 км 10/10 240 м +12.2 +11.1 93 +9 +9 прохладно 1004.0 1001.0
Ю 5-8 {9} н/о в посл. час морось 10/10 100 м +12.2 +11.4 95 +10 +10 по сезону 1003.0 1000.0
Ю 5-7 {8} н/о морось 10/10 50 м +12.5 +12.0 97 +10 +10 по сезону 1002.5 999.5
Ю 4-6 {6} 2700 м слаб. дождь 10/10 90 м +12.7 +12.4 98 +11 +11 по сезону 1002.3 999.3 0.4
Ю 3-5 {5} н/о 10/10 1000 м +12.9 +12.5 97 +11 +11 по сезону 1001.8 998.8
ЮЗ 3-7 {7} н/о слаб. дождь 10/9 900 м +13.1 +12.0 94 +11 +11 по сезону 1001.8 998.9
ЮЗ 4-6 {8} 40 км в посл. час морось 10/10 210 м +13.3 +12.0 92 +11 +11 по сезону 1001.8 998.8 +11.3 +13.6 2.0
ЮЗ 5-7 {9} н/о 10/10 300 м +14.3 +11.8 85 +13 +13 по сезону 1001.7 998.7
ЮЗ 7-9 {10} н/о 10/3 1500 м +15.1 +11.4 79 +13 +13 тепло 1001.9 998.9
ЮЗ 7-9 {10} 45 км 9/9 660 м +17.0 +10.4 65 +16 +16 по сезону 1001.6 998.7 +17.1 1
Ю 6-9 {11} н/о дождь 10/10 600 м +17.1 +10.5 65 +16 +16 по сезону 1001.6 998.7
Ю 7-11 {11} н/о в посл. час дождь 10/3 2000 м +14.4 +12.1 86 +12 +12 прохладно 1001.8 998.8 1
ЮЗ 9-11 {11} 50 км в посл. час дождь 10/10 630 м +17.1 +11.4 69 +16 +16 прохладно 1001.2 998.3
ЮЗ 0-11 {12} н/о 10/8 1000 м +18.0 +9.5 58 +18 +18 по сезону 1000.8 997.9
Ю 9-13 {13} н/о 10/10 1000 м +18.4 +7.7 50 +18 +18 по сезону 1000.5 997.6
Ю 9-13 {14} >70 км 4/4 1230 м +19.8 +8.4 48 +20 +21 тепло 1000.2 997.3
ЮЗ 9-11 {13} н/о 8/8 1000 м +19.9 +7.4 44 +20 +20 тепло 1000.0 997.1
ЮЗ 8-11 {12} н/о 10/8 1500 м +18.4 +7.9 50 +18 +18 по сезону 999.8 996.9
Ю 8-10 {12} 60 км 9/9 1260 м +17.1 +6.9 51 +16 +16 прохладно 999.6 996.7 +20.3
Ю 8-11 {11} н/о 10/4 1500 м +15.9 +6.8 55 +14 +14 прохладно 999.7 996.7
Ю 6-10 {11} н/о 5/5 1500 м +14.6 +8.0 65 +13 +13 холодно 999.6 996.7
Ю 4-6 {8} 40 км 6/6 1500 м +13.9 +8.2 68 +13 +13 по сезону 999.5 996.5 +20.3 1
Ю 4-7 {8} н/о слаб. дождь 6/1 800 м +13.2 +9.2 77 +11 +11 прохладно 998.9 995.9
Ю 5-8 {8} н/о в посл. час дождь 10/4 1500 м +12.6 +10.2 85 +10 +10 прохладно 998.4 995.4 2
Ю 3-8 {8} 40 км в посл. час дождь 9/9 540 м +11.4 +9.4 88 +9 +9 прохладно 998.1 995.1
Ю 6-8 {9} н/о слаб. морось 10/10 300 м +11.2 +9.2 87 +8 +8 прохладно 998.0 995.0
ЮЗ 6-8 {8} н/о слаб. дождь 10/10 100 м +10.5 +9.4 93 +7 +7 по сезону 998.1 995.1
ЮЗ 6-8 {8} >70 км в посл. час дождь 10/10 270 м +10.3 +9.1 92 +7 +7 холодно 998.7 995.7 0.4
ЮЗ 7-9 {10} н/о ясно +9.8 +8.2 90 +6 +6 холодно 998.9 995.9
ЮЗ 5-7 {10} н/о 1/1 300 м +9.8 +8.4 91 +7 +7 прохладно 999.3 996.3
ЮЗ 5-8 {9} 40 км ясно +10.9 +8.8 87 +8 +9 прохладно 999.6 996.6 +9.6 +17.1 3.4
Ю 6-8 {9} н/о слаб. дождь 10/10 600 м +12.8 +8.4 75 +10 +11 по сезону 999.8 996.8
Ю 5-7 {8} н/о дождь 10/10 300 м +13.1 +9.2 77 +11 +11 по сезону 999.1 996.1 0.2
Ю 6-9 {9} 4100 м слаб. дождь 10/10 270 м +13.1 +11.6 91 +11 +11 холодно 998.2 995.2 +14.0 3
Ю 6-9 {9} н/о в посл. час морось 10/10 300 м +14.7 +12.7 88 +13 +13 прохладно 997.6 994.6 0.4
Ю 9-14 {14} н/о в посл. час дождь 10/10 600 м +15.3 +11.5 78 +13 +13 по сезону 997.7 994.8 0.4
ЮЗ 8-11 {15} 60 км в посл. час дождь 10/10 630 м +15.4 +12.0 80 +14 +14 холодно 998.2 995.2 1
ЮЗ 8-10 {17} н/о в посл. час дождь 10/3 1000 м +15.8 +13.3 85 +14 +14 холодно 998.6 995.6 1
ЮЗ 9-14 {15} н/о 10/5 1000 м +17.7 +9.3 58 +17 +17 прохладно 999.0 996.1
З 9-13 {14} 55 км 4/4 1260 м +19.3 +8.3 49 +19 +20 по сезону 999.3 996.4
ЮЗ 9-12 {15} н/о 1/1 1500 м +15.8 +9.2 65 +14 +14 холодно 999.8 996.8
З 8-13 {13} н/о в посл. час дождь 8/8 2000 м +12.5 +9.3 81 +9 +9 очень холодно 1000.7 997.7 0.6
ЮЗ 5-7 {9} 45 км в посл. час дождь 10/10 1080 м +14.8 +10.2 74 +13 +13 холодно 1000.7 997.7 +19.4
ЮЗ 5-7 {7} н/о 10/5 1000 м +14.8 +9.1 69 +13 +13 холодно 1000.7 997.7
ЮЗ 6-9 {9} н/о 10/10 1000 м +14.4 +9.3 71 +13 +13 холодно 1000.9 998.0
ЮЗ 6-9 {9} 24 км 10/10 1500 м +13.9 +8.9 72 +12 +12 прохладно 1001.5 998.5 +19.4 4
ЮЗ 6-8 {9} н/о в посл. час дождь со снегом 9/9 1500 м +13.3 +8.8 74 +11 +11 прохладно 1001.8 998.8
Ю 4-5 {7} н/о 10/6 1000 м +12.7 +9.9 83 +11 +11 прохладно 1001.4 998.5
Ю 3-8 {8} 19 км 10/10 1300 м +12.8 +10.0 83 +11 +11 по сезону 1001.3 998.3
Ю 5-7 {8} н/о 10/5 1230 м +12.9 +10.0 83 +11 +11 по сезону 1000.8 997.9
ЮЗ 6-8 {10} 20 км 8/8 540 м +12.0 +9.1 82 +9 +9 по сезону 1000.6 997.6
Ю 3-6 {9} 19 км ясно +11.6 +9.2 85 +10 +10 по сезону 1000.4 997.4
Ю 3-8 {8} н/о н/о +11.4 +9.1 86 +10 +10 по сезону 1000.4 997.4
Ю 3-9 {9} н/о слаб. дождь 10/10 1000 м +12.0 +9.4 84 +11 +11 тепло 1000.4 997.4
Ю 6-9 {10} 26 км в посл. час дождь 10/10 600 м +12.8 +10.1 84 +10 +10 по сезону 1000.6 997.6 +11.3 +15.4 4.4
ЮЗ 3-11 {11} н/о 10/5 1500 м +13.8 +10.2 79 +13 +13 тепло 1000.6 997.7
ЮЗ 6-9 {11} н/о в посл. час дождь со снегом 5/1 1080 м +14.7 +9.7 72 +13 +13 тепло 1001.0 998.1
З 7-10 {10} 45 км в посл. час дождь 5/5 700 м +16.1 +9.3 64 +15 +16 по сезону 1001.4 998.5 +17.3
ЮЗ 7-9 {10} н/о 3/1 1000 м +16.3 +9.3 63 +15 +16 тепло 1001.8 998.8
З 0-9 {11} н/о 4/4 1000 м +19.5 +8.6 49 +20 +40 опасность простуды 1001.9 999.0
З 6-10 {11} >70 км 8/8 1350 м +19.6 +7.5 45 +20 +21 тепло 1002.0 999.1
З 0 н/о 8/1 1500 м +20.6 +6.3 39 +21 +37 комфорт 1002.5 999.6
З 4-7 {9} н/о 10/1 1500 м +21.3 +8.0 42 +22 +22 комфорт 1002.8 999.9
З 4-6 {11} >70 км 10/10 2000 м +20.7 +8.3 45 +22 +22 комфорт 1003.1 1000.2
З 5-8 {8} н/о 10/6 1500 м +20.7 +5.6 37 +21 +23 комфорт 1003.0 1000.1
Ю 6-9 {10} н/о 10/1 1000 м +19.2 +9.7 54 +20 +20 тепло 1003.5 1000.6
ЮЗ 8-11 {11} 45 км 10/10 1500 м +18.3 +9.6 57 +18 +18 тепло 1004.2 1001.3 +22.1
ЮЗ 6-8 {11} н/о в посл. час дождь 10/10 1500 м +15.4 +10.3 72 +14 +14 по сезону 1004.7 1001.8
ЮЗ 4-6 {7} н/о 10/10 1500 м +16.4 +10.5 68 +16 +16 по сезону 1005.1 1002.1 0.4
Ю 4-6 {6} 45 км 10/10 1500 м +15.9 +10.3 69 +15 +15 по сезону 1005.7 1002.8 +22.1 0.4
Ю 5-8 {8} н/о 3/3 +14.8 +10.5 75 +13 +13 по сезону 1006.3 1003.3
Ю 4-6 {6} н/о 5/5 +13.2 +10.2 82 +11 +11 по сезону 1006.6 1003.6
ЮЗ 4-6 {6} н/о 5/5 +12.6 +10.2 85 +11 +11 по сезону 1006.9 1003.9
ЮЗ 4-5 {6} н/о 10/10 +12.0 +10.1 88 +10 +10 тепло 1007.2 1004.2
Ю 2-3 {5} н/о ясно +11.1 +9.5 90 +10 +10 тепло 1007.5 1004.5
ЮЗ 3-4 {4} 40 км ясно +10.9 +9.1 89 +9 +9 по сезону 1007.8 1004.8
ЮЗ 3-4 {4} н/о ясно +10.4 +8.9 90 +8 +8 по сезону 1008.3 1005.3
ЮЗ 3-3 {4} н/о ясно +10.7 +9.1 90 +9 +9 тепло 1008.5 1005.5
З 2-3 {3} 40 км ясно +12.4 +9.9 85 +11 +14 по сезону 1009.0 1006.0 +10.1 +18.3 0.4
ЮЗ 3-5 {5} н/о ясно +14.5 +10.2 75 +14 +17 тепло 1009.3 1006.3
Ю 4-6 {6} н/о 4/4 600 м +16.4 +9.6 64 +16 +22 тепло 1009.7 1006.7
ЮЗ 6-8 {9} >70 км 8/8 900 м +18.2 +8.6 53 +18 +19 тепло 1010.0 1007.0 +18.3
ЮЗ 5-8 {8} н/о 8/8 1000 м +19.5 +8.4 49 +20 +24 тепло 1010.2 1007.3
ЮЗ 5-6 {8} н/о в посл. час дождь со снегом ясно +20.0 +8.3 47 +21 +28 комфорт 1010.5 1007.5
З 4-7 {8} 65 км в посл. час дождь 1/1 1380 м +19.5 +7.3 45 +20 +32 тепло 1010.6 1007.7
З 3-6 {7} н/о 3/3 1500 м +20.6 +7.4 42 +22 +33 комфорт 1010.7 1007.8
ЮЗ 0-5 {7} н/о 1/1 1500 м +22.2 +6.8 37 +23 +36 комфорт 1010.8 1007.9
ЮЗ 0-6 {8} >70 км ясно +22.9 +7.8 38 +24 +33 комфорт 1010.9 1008.0
ЮЗ 2-8 {8} н/о 1/1 2000 м +21.9 +5.8 35 +22 +31 комфорт 1010.9 1008.0
ЮЗ 2-6 {7} н/о ясно +22.5 +7.1 37 +23 +29 комфорт 1010.8 1007.9
ЮЗ 0-6 {7} >70 км 3/3 1500 м +22.8 +7.0 36 +22 +23 комфорт 1011.0 1008.1 +23.6
З 0-5 {7} н/о ясно +20.9 +7.1 41 +22 +23 комфорт 1011.4 1008.5
Ю 2-5 {8} н/о 9/9 1000 м +19.7 +10.9 57 +22 +22 комфорт 1011.9 1008.9
З 2-8 {8} 65 км 10/10 1080 м +19.1 +10.5 57 +21 +21 комфорт 1012.8 1009.9 +23.6
ЮЗ 0-6 {7} н/о 10/8 +17.7 +9.5 59 +18 +18 тепло 1013.2 1010.2
ЮЗ 0-4 {6} н/о ясно +16.2 +9.6 65 +16 +16 тепло 1013.5 1010.5
ЮЗ 0-2 {3} 55 км 10/10 +15.2 +9.5 69 +15 +15 тепло 1013.7 1010.7
З 0-2 {2} н/о 3/3 +15.0 +9.7 71 +15 +15 тепло 1013.5 1010.5
СЗ 0-1 {2} н/о 9/9 +13.6 +9.5 76 +13 +13 тепло 1013.3 1010.3
С 0-2 {2} 45 км 8/8 +13.6 +10.1 79 +13 +13 тепло 1013.2 1010.2
С 0-4 {6} н/о 3/3 +13.5 +10.7 83 +13 +13 тепло 1013.4 1010.4
С 0-3 {5} н/о ясно +13.1 +10.1 82 +13 +13 тепло 1014.3 1011.3
С 0-7 {7} 45 км ясно +14.1 +9.7 75 +14 +17 тепло 1014.0 1011.0 +13.1 +22.0
СВ 0-4 {6} н/о ясно +14.8 +9.6 71 +15 +21 тепло 1014.3 1011.3
СВ 0-6 {6} н/о ясно +16.0 +9.8 67 +16 +25 тепло 1014.4 1011.4
С 0-5 {6} 60 км ясно +18.1 +10.3 60 +18 +33 опасность простуды 1014.3 1011.4 +18.8
С 0-5 {6} н/о 1/1 +19.2 +10.3 56 +20 +39 опасность простуды 1014.1 1011.1
С 0-5 {6} н/о 10/5 +20.9 +10.4 51 +22 +45 комфорт 1013.8 1010.9
С 0-5 {5} 45 км 6/6 1140 м +21.2 +10.7 51 +23 +38 комфорт 1013.7 1010.7
СЗ 0-6 {7} н/о 10/3 1500 м +21.9 +11.0 50 +24 +32 комфорт 1013.8 1010.9
С 3-5 {6} н/о 6/4 1500 м +21.3 +9.9 48 +23 +23 комфорт 1013.8 1010.9
СЗ 4-7 {9} 65 км 1/1 1500 м +22.7 +10.7 47 +25 +32 комфорт 1013.9 1011.0
С 4-7 {8} н/о 10/8 1500 м +22.4 +10.1 46 +24 +25 комфорт 1014.0 1011.0
СЗ 4-8 {9} н/о 10/10 1000 м +20.6 +9.7 50 +22 +23 комфорт 1014.3 1011.4
С 5-8 {9} 55 км 4/4 1470 м +20.1 +9.7 51 +21 +22 комфорт 1014.6 1011.7 +22.9
СЗ 4-7 {8} н/о ясно +19.4 +9.0 51 +20 +21 тепло 1015.0 1012.0
С 4-6 {7} н/о 1/1 1500 м +18.5 +9.0 54 +19 +19 тепло 1015.4 1012.5
СЗ 3-4 {6} 50 км 3/3 1500 м +17.7 +9.7 59 +18 +18 тепло 1016.2 1013.2 +22.9
С 3-6 {6} н/о 10/9 +17.2 +10.6 65 +17 +17 тепло 1016.8 1013.8
С 4-6 {7} н/о 10/3 1000 м +15.6 +10.0 69 +15 +15 тепло 1017.5 1014.5
С 4-7 {9} 40 км 4/4 1050 м +13.5 +10.5 82 +12 +12 тепло 1017.9 1014.9
СВ 2 н/о 3/3 300 м +12.7 +10.4 86 +12 +12 тепло 1018.4 1015.4
С 3-6 {6} н/о 1/1 300 м +12.4 +10.3 87 +11 +11 тепло 1018.4 1015.4
С 2-3 {5} 25 км 1/1 480 м +12.0 +10.2 89 +11 +11 тепло 1018.7 1015.6
СВ 3-5 {6} н/о 10/10 300 м +12.8 +10.3 85 +12 +12 тепло 1019.1 1016.1
СВ 4-6 {8} н/о 10/10 300 м +13.4 +9.9 79 +12 +12 тепло 1019.5 1016.4
С 4-7 {9} 45 км 10/10 450 м +13.2 +9.5 78 +11 +11 тепло 1019.6 1016.6 +12.0 +20.5
СВ 5-9 {9} 55 км 10/10 540 м +13.6 +8.8 73 +12 +12 тепло 1020.2 1017.2
СВ 5-7 {8} 55 км 10/10 570 м +14.3 +9.1 71 +13 +13 тепло 1020.9 1017.8
СВ 5-9 {9} 55 км 5/5 800 м +16.1 +8.4 60 +15 +18 тепло 1021.3 1018.3 +17.8
СВ 4-8 {8} 65 км 6/6 900 м +17.4 +8.5 56 +17 +21 тепло 1021.5 1018.5
СВ 4-6 {8} 60 км 5/5 1000 м +18.2 +7.8 51 +18 +24 тепло 1021.9 1018.9
С 5-8 {9} н/о 6/6 1000 м +19.6 +9.0 50 +20 +26 тепло 1021.8 1018.9
СВ 4-7 {8} 60 км 6/6 1260 м +20.5 +8.6 46 +22 +26 комфорт 1022.2 1019.2
СВ 5-8 {9} 60 км 1/1 1440 м +20.5 +7.4 43 +22 +29 комфорт 1022.0 1019.1
СВ 4-7 {9} >70 км ясно +20.9 +7.0 41 +22 +31 комфорт 1021.4 1018.4
Местоположение метеостанции Лондон (Великобритания): широта 51.48 долгота -0.45 высота над уровнем моря 25 м.
В архиве по умолчанию представлена погода в Лондоне за последнюю неделю. Архивные данные за месяц целиком и за предыдущие месяцы, начиная с января 2011 года, Вы можете получить, выбрав интересующий диапазон дат из раскрывающегося списка и нажав кнопку "Найти!".
*Определитесь, кто Вы:
Внимание! Время в таблицах - всемирное. Для получения местного времени необходимо прибавить поправку, которая равна 0 ч.
Некоторые строки с данными для отдельных станций могут быть выделены курсивом. Это означает, что фактические данные отсутствуют по различным причинам, а приведенные значения являются расчетными модельными данными для данного пункта наблюдений.
Смотрите также архив погоды в соседних городах и на ближайших метеорологических станциях:
Партнеры нашего сайта:
Парфюмерия бай
парфюмерия бай
perfumer.by

     
Пояснения к столбцам:
  • Ветер - указаны скорость ветра в м/с - средняя за 10 мин, порывы в срок и между сроками (в фигурных скобках) и направление, откуда дует ветер: С - северный,
  • СВ - северо-восточный, В - восточный, ЮВ - юго-восточный, Ю - южный, ЮЗ - юго-западный, З - западный, СЗ - северо-западный.
  • Видимость - горизонтальная дальность видимости в метрах или километрах. При видимости от 1 до 10 км при отсутствии осадков обычно наблюдается дымка, при ухудшении видимости до 1 км и менее - туман. В сухую погоду видимость может ухудшаться дымом, пылью или мглою.
  • Явления - указаны атмосферные явления, наблюдавшиеся в срок или в последний час перед сроком; фигурными скобками обозначены явления, наблюдавшиеся между сроками (за 1-3 часа до срока); квадратными скобками обозначены град или гололедные отложения с указанием их диаметра в мм.
  • Облачность - указаны через наклонную черту общая и нижняя облачность в баллах и высота нижней границы облаков в метрах; квадратными скобками обозначены формы облаков: Ci - перистые, Cs - перисто-слоистые, Cc - перисто-кучевые, Ac - высококучевые, As - высокослоистые, Sc - слоисто-кучевые, Ns - слоисто-дождевые, Cu - кучевые, Cb - кучево-дождевые. Подробнее классификацию облаков см. в Атласе облаков (PDF).
  • T - Температура воздуха - температура, измеренная на высоте 2 м над землей.
  • Td - Температура точки росы - температура, при понижении до которой содержащийся в воздухе водяной пар достигнет насыщения.
  • f - Относительная влажность воздуха - влажноcть воздуха, измеренная на высоте 2 м над землей.
  • Te - Эффективная температура - температура, которую ощущает одетый по сезону человек в тени. Характеристика душности погоды. При расчете учитывается влияние влажности воздуха и скорости ветра на теплоощущения человека.
  • Tes - Эффективная температура на солнце - температура, которую ощущает человек, с поправкой на солнечный нагрев. Характеристика знойности погоды. Зависит от высоты солнца над горизонтом, облачности и скорости ветра. Ночью, в пасмурную погоду, а также при ветре 12 м/с и более поправка равна нулю.
  • P - Атмосферное давление - приведенное к уровню моря атмосферное давление.
  • Po - Атмосферное давление - измеренное на уровне метеостанции атмосферное давление.
  • Tmin - Минимальная температура - минимум температуры воздуха на высоте 2 м над землей.
  • Tmax - Максимальная температура - максимум температуры воздуха на высоте 2 м над землей.
  • R - Количество осадков - Количество выпавших осадков за период времени, мм. При наведении курсора мыши на число - период времени, за который выпало указанное количество осадков.
  • R24 - Количество осадков - Количество выпавших осадков за 24 часа, мм.
  • S - Снежный покров - Высота снежного покрова, см. При наведении курсора мыши на число - состояние снежного покрова и степень покрытия местности в баллах.